| time (UTC) | temp C | wind direction | speed KPH | gust KPH | rain 1hr cm | rain 24hr cm | rain mn cm | humidity % | barometer mb |
| 20260507225531 | 29 | 233 | 4.8 | 19.3 | 0.00 | 0.00 | 0.00 | 76 | 1006.0 |
| 20260507225102 | 28 | 219 | 8.0 | 19.3 | 0.00 | 0.00 | 0.00 | 76 | 1006.0 |
| 20260507224625 | 29 | 244 | 8.0 | 14.5 | 0.00 | 0.00 | 0.00 | 75 | 1006.0 |
| 20260507224007 | 29 | 218 | 8.0 | 12.9 | 0.00 | 0.00 | 0.00 | 75 | 1006.0 |
| 20260507223528 | 29 | 272 | 4.8 | 20.9 | 0.00 | 0.00 | 0.00 | 75 | 1006.0 |
| 20260507223058 | 29 | 240 | 4.8 | 20.9 | 0.00 | 0.00 | 0.00 | 75 | 1006.1 |
| 20260507222604 | 29 | 203 | 9.7 | 19.3 | 0.00 | 0.00 | 0.00 | 74 | 1006.2 |
| 20260507222118 | 29 | 209 | 6.4 | 19.3 | 0.00 | 0.00 | 0.00 | 74 | 1006.3 |
| 20260507221533 | 29 | 223 | 8.0 | 17.7 | 0.00 | 0.00 | 0.00 | 74 | 1006.2 |
| 20260507221107 | 29 | 216 | 9.7 | 16.1 | 0.00 | 0.00 | 0.00 | 74 | 1006.3 |
| 20260507220629 | 29 | 179 | 9.7 | 16.1 | 0.00 | 0.00 | 0.00 | 74 | 1006.4 |
| 20260507220043 | 29 | 236 | 8.0 | 16.1 | 0.00 | 0.00 | 0.00 | 74 | 1006.5 |
| 20260507215610 | 29 | 175 | 9.7 | 16.1 | 0.00 | 0.00 | 0.00 | 74 | 1006.5 |
| 20260507215136 | 29 | 188 | 11.3 | 16.1 | 0.00 | 0.00 | 0.00 | 75 | 1006.6 |
| 20260507214518 | 29 | 223 | 9.7 | 16.1 | 0.00 | 0.00 | 0.00 | 74 | 1006.7 |
| 20260507214049 | 29 | 205 | 4.8 | 17.7 | 0.00 | 0.00 | 0.00 | 74 | 1006.7 |
| 20260507213604 | 29 | 211 | 6.4 | 19.3 | 0.00 | 0.00 | 0.00 | 74 | 1006.8 |
| 20260507213026 | 29 | 184 | 11.3 | 19.3 | 0.00 | 0.00 | 0.00 | 73 | 1006.8 |
| 20260507212539 | 30 | 223 | 11.3 | 20.9 | 0.00 | 0.00 | 0.00 | 72 | 1006.9 |
| 20260507212048 | 30 | 222 | 11.3 | 22.5 | 0.00 | 0.00 | 0.00 | 72 | 1006.9 |
| 20260507211612 | 30 | 184 | 8.0 | 16.1 | 0.00 | 0.00 | 0.00 | 72 | 1007.0 |
| 20260507211016 | 30 | 220 | 9.7 | 19.3 | 0.00 | 0.00 | 0.00 | 72 | 1007.1 |
| 20260507210541 | 30 | 254 | 8.0 | 19.3 | 0.00 | 0.00 | 0.00 | 72 | 1007.2 |
| 20260507210113 | 30 | 188 | 9.7 | 19.3 | 0.00 | 0.00 | 0.00 | 72 | 1007.3 |
| 20260507205620 | 30 | 238 | 11.3 | 19.3 | 0.00 | 0.00 | 0.00 | 71 | 1007.3 |
| 20260507205011 | 30 | 246 | 9.7 | 22.5 | 0.00 | 0.00 | 0.00 | 72 | 1007.5 |
| 20260507204531 | 30 | 185 | 9.7 | 22.5 | 0.00 | 0.00 | 0.00 | 72 | 1007.6 |
| 20260507204103 | 30 | 261 | 9.7 | 19.3 | 0.00 | 0.00 | 0.00 | 72 | 1007.6 |
| 20260507203623 | 30 | 236 | 9.7 | 22.5 | 0.00 | 0.00 | 0.00 | 71 | 1007.7 |
| 20260507203011 | 30 | 254 | 11.3 | 19.3 | 0.00 | 0.00 | 0.00 | 71 | 1007.9 |
| 20260507202530 | 30 | 232 | 9.7 | 17.7 | 0.00 | 0.00 | 0.00 | 71 | 1007.8 |
| 20260507202056 | 30 | 188 | 11.3 | 27.4 | 0.00 | 0.00 | 0.00 | 71 | 1007.9 |
| 20260507201616 | 30 | 252 | 9.7 | 27.4 | 0.00 | 0.00 | 0.00 | 71 | 1007.9 |
| 20260507201012 | 30 | 178 | 9.7 | 20.9 | 0.00 | 0.00 | 0.00 | 71 | 1008.0 |
| 20260507200528 | 30 | 199 | 11.3 | 24.1 | 0.00 | 0.00 | 0.00 | 70 | 1008.0 |
| 20260507200049 | 30 | 186 | 9.7 | 24.1 | 0.00 | 0.00 | 0.00 | 69 | 1008.0 |
| 20260507195612 | 30 | 198 | 11.3 | 19.3 | 0.00 | 0.00 | 0.00 | 69 | 1008.1 |
| 20260507195132 | 30 | 210 | 9.7 | 19.3 | 0.00 | 0.00 | 0.00 | 69 | 1008.1 |
| 20260507194530 | 30 | 231 | 9.7 | 22.5 | 0.00 | 0.00 | 0.00 | 69 | 1008.1 |
| 20260507194051 | 30 | 220 | 9.7 | 22.5 | 0.00 | 0.00 | 0.00 | 69 | 1008.2 |
| 20260507193607 | 30 | 200 | 9.7 | 20.9 | 0.00 | 0.00 | 0.00 | 69 | 1008.3 |
| 20260507193017 | 30 | 253 | 9.7 | 16.1 | 0.00 | 0.00 | 0.00 | 70 | 1008.4 |
| 20260507192532 | 30 | 190 | 9.7 | 16.1 | 0.00 | 0.00 | 0.00 | 71 | 1008.4 |
| 20260507192046 | 30 | 202 | 9.7 | 19.3 | 0.00 | 0.00 | 0.00 | 71 | 1008.4 |
| 20260507191604 | 30 | 206 | 9.7 | 19.3 | 0.00 | 0.00 | 0.00 | 71 | 1008.5 |
| 20260507191001 | 30 | 149 | 8.0 | 24.1 | 0.00 | 0.00 | 0.00 | 72 | 1008.6 |
| 20260507190520 | 30 | 186 | 9.7 | 24.1 | 0.00 | 0.00 | 0.00 | 72 | 1008.6 |
| 20260507190105 | 30 | 181 | 9.7 | 17.7 | 0.00 | 0.00 | 0.00 | 73 | 1008.6 |
| 20260507185608 | 30 | 229 | 9.7 | 17.7 | 0.00 | 0.00 | 0.00 | 73 | 1008.7 |
| 20260507185010 | 30 | 190 | 9.7 | 17.7 | 0.00 | 0.00 | 0.00 | 73 | 1008.8 |
| 20260507184540 | 30 | 175 | 9.7 | 19.3 | 0.00 | 0.00 | 0.00 | 73 | 1008.8 |
| 20260507184055 | 30 | 223 | 11.3 | 19.3 | 0.00 | 0.00 | 0.00 | 73 | 1008.9 |
| 20260507183616 | 30 | 226 | 9.7 | 16.1 | 0.00 | 0.00 | 0.00 | 73 | 1009.0 |
| 20260507183013 | 29 | 178 | 6.4 | 16.1 | 0.00 | 0.00 | 0.00 | 73 | 1008.9 |
| 20260507182532 | 29 | 271 | 8.0 | 16.1 | 0.00 | 0.00 | 0.00 | 73 | 1009.0 |
| 20260507182055 | 29 | 227 | 8.0 | 16.1 | 0.00 | 0.00 | 0.00 | 72 | 1009.0 |
| 20260507181616 | 29 | 171 | 8.0 | 16.1 | 0.00 | 0.00 | 0.00 | 71 | 1009.0 |
| 20260507181132 | 30 | 153 | 6.4 | 12.9 | 0.00 | 0.00 | 0.00 | 71 | 1009.1 |
| 20260507180520 | 30 | 183 | 8.0 | 11.3 | 0.00 | 0.00 | 0.00 | 70 | 1009.1 |
| 20260507180052 | 30 | 240 | 6.4 | 16.1 | 0.00 | 0.00 | 0.00 | 71 | 1009.1 |
| 20260507175623 | 30 | 201 | 6.4 | 16.1 | 0.00 | 0.00 | 0.00 | 71 | 1009.0 |
| 20260507175014 | 30 | 240 | 8.0 | 14.5 | 0.00 | 0.00 | 0.00 | 71 | 1009.1 |
| 20260507174534 | 30 | 165 | 6.4 | 14.5 | 0.00 | 0.00 | 0.00 | 70 | 1009.2 |
| 20260507174048 | 30 | 181 | 8.0 | 12.9 | 0.00 | 0.00 | 0.00 | 70 | 1009.2 |
| 20260507173607 | 29 | 222 | 4.8 | 12.9 | 0.00 | 0.00 | 0.00 | 70 | 1009.1 |
| 20260507173036 | 29 | 167 | 4.8 | 14.5 | 0.00 | 0.00 | 0.00 | 70 | 1009.1 |
| 20260507172539 | 29 | 232 | 6.4 | 14.5 | 0.00 | 0.00 | 0.00 | 70 | 1009.1 |
| 20260507172058 | 29 | 236 | 4.8 | 14.5 | 0.00 | 0.00 | 0.00 | 70 | 1009.1 |
| 20260507171610 | 29 | 279 | 4.8 | 12.9 | 0.00 | 0.00 | 0.00 | 69 | 1009.1 |
| 20260507171016 | 30 | 183 | 6.4 | 12.9 | 0.00 | 0.00 | 0.00 | 69 | 1009.2 |
| 20260507170536 | 30 | 184 | 4.8 | 12.9 | 0.00 | 0.00 | 0.00 | 69 | 1009.1 |
| 20260507170045 | 30 | 166 | 4.8 | 14.5 | 0.00 | 0.00 | 0.00 | 70 | 1009.2 |
| 20260507165619 | 29 | 200 | 6.4 | 14.5 | 0.00 | 0.00 | 0.00 | 70 | 1009.3 |
| 20260507165016 | 29 | 206 | 4.8 | 14.5 | 0.00 | 0.00 | 0.00 | 70 | 1009.2 |
| 20260507164536 | 29 | 215 | 4.8 | 9.7 | 0.00 | 0.00 | 0.00 | 70 | 1009.2 |
| 20260507164057 | 29 | 209 | 6.4 | 9.7 | 0.00 | 0.00 | 0.00 | 70 | 1009.2 |
| 20260507163616 | 28 | 211 | 6.4 | 9.7 | 0.00 | 0.00 | 0.00 | 70 | 1009.2 |
| 20260507163010 | 28 | 244 | 4.8 | 11.3 | 0.00 | 0.00 | 0.00 | 70 | 1009.2 |
| 20260507162529 | 28 | 242 | 3.2 | 11.3 | 0.00 | 0.00 | 0.00 | 71 | 1009.2 |
| 20260507162049 | 28 | 227 | 4.8 | 11.3 | 0.00 | 0.00 | 0.00 | 70 | 1009.2 |
| 20260507161605 | 28 | 191 | 4.8 | 12.9 | 0.00 | 0.00 | 0.00 | 70 | 1009.2 |
| 20260507161123 | 28 | 232 | 6.4 | 11.3 | 0.00 | 0.00 | 0.00 | 69 | 1009.2 |
| 20260507160526 | 28 | 278 | 6.4 | 11.3 | 0.00 | 0.00 | 0.00 | 68 | 1009.3 |
| 20260507160043 | 28 | 196 | 6.4 | 11.3 | 0.00 | 0.00 | 0.00 | 68 | 1009.3 |
| 20260507155528 | 28 | 239 | 4.8 | 14.5 | 0.00 | 0.00 | 0.00 | 67 | 1009.2 |
| 20260507155059 | 28 | 217 | 4.8 | 14.5 | 0.00 | 0.00 | 0.00 | 67 | 1009.2 |
| 20260507154616 | 28 | 253 | 6.4 | 11.3 | 0.00 | 0.00 | 0.00 | 66 | 1009.2 |
| 20260507154130 | 28 | 217 | 6.4 | 11.3 | 0.00 | 0.00 | 0.00 | 66 | 1009.2 |
| 20260507153514 | 28 | 300 | 3.2 | 9.7 | 0.00 | 0.00 | 0.00 | 66 | 1009.2 |
| 20260507153044 | 28 | 302 | 1.6 | 6.4 | 0.00 | 0.00 | 0.00 | 67 | 1009.1 |
| 20260507152607 | 28 | 230 | 3.2 | 6.4 | 0.00 | 0.00 | 0.00 | 67 | 1009.1 |
| 20260507152009 | 28 | 240 | 3.2 | 6.4 | 0.00 | 0.00 | 0.00 | 68 | 1009.0 |
| 20260507151523 | 27 | 306 | 1.6 | 8.0 | 0.00 | 0.00 | 0.00 | 69 | 1009.0 |
| 20260507151110 | 27 | 232 | 3.2 | 8.0 | 0.00 | 0.00 | 0.00 | 69 | 1008.9 |
| 20260507150629 | 27 | 246 | 1.6 | 4.8 | 0.00 | 0.00 | 0.00 | 70 | 1008.9 |
| 20260507150047 | 27 | 319 | 0.0 | 4.8 | 0.00 | 0.00 | 0.00 | 70 | 1008.9 |
| 20260507145620 | 26 | 319 | 3.2 | 4.8 | 0.00 | 0.00 | 0.00 | 70 | 1008.9 |
| 20260507145025 | 26 | 311 | 1.6 | 6.4 | 0.00 | 0.00 | 0.00 | 70 | 1008.9 |
| 20260507144536 | 26 | 236 | 1.6 | 4.8 | 0.00 | 0.00 | 0.00 | 70 | 1008.9 |
| 20260507144058 | 26 | 355 | 0.0 | 4.8 | 0.00 | 0.00 | 0.00 | 70 | 1008.9 |
| 20260507143619 | 25 | 355 | 1.6 | 4.8 | 0.00 | 0.00 | 0.00 | 71 | 1008.8 |
| 20260507143018 | 25 | 346 | 0.0 | 4.8 | 0.00 | 0.00 | 0.00 | 71 | 1008.8 |
| 20260507142524 | 25 | 360 | 1.6 | 3.2 | 0.00 | 0.00 | 0.00 | 72 | 1008.8 |
| 20260507142116 | 25 | 360 | 0.0 | 4.8 | 0.00 | 0.00 | 0.00 | 72 | 1008.8 |
| 20260507141626 | 25 | 317 | 1.6 | 6.4 | 0.00 | 0.00 | 0.00 | 72 | 1008.7 |
| 20260507141044 | 25 | 345 | 3.2 | 4.8 | 0.00 | 0.00 | 0.00 | 73 | 1008.7 |
| 20260507140604 | 25 | 355 | 1.6 | 4.8 | 0.00 | 0.00 | 0.00 | 73 | 1008.6 |
| 20260507140007 | 24 | 61 | 0.0 | 4.8 | 0.00 | 0.00 | 0.00 | 73 | 1008.6 |
| 20260507135526 | 24 | 65 | 1.6 | 4.8 | 0.00 | 0.00 | 0.00 | 73 | 1008.5 |
| 20260507135058 | 24 | 66 | 1.6 | 6.4 | 0.00 | 0.00 | 0.00 | 73 | 1008.6 |
| 20260507134619 | 24 | 53 | 3.2 | 6.4 | 0.00 | 0.00 | 0.00 | 73 | 1008.6 |
| 20260507134014 | 23 | 319 | 0.0 | 3.2 | 0.00 | 0.00 | 0.00 | 74 | 1008.7 |
| 20260507133534 | 23 | 319 | 0.0 | 1.6 | 0.00 | 0.00 | 0.00 | 74 | 1008.6 |
| 20260507133105 | 23 | 319 | 0.0 | 4.8 | 0.00 | 0.00 | 0.00 | 74 | 1008.6 |
| 20260507132625 | 23 | 319 | 0.0 | 4.8 | 0.00 | 0.00 | 0.00 | 74 | 1008.6 |
| 20260507132007 | 23 | 300 | 0.0 | 3.2 | 0.00 | 0.00 | 0.00 | 74 | 1008.5 |
| 20260507131522 | 23 | 300 | 1.6 | 3.2 | 0.00 | 0.00 | 0.00 | 74 | 1008.4 |
| 20260507131101 | 23 | 24 | 0.0 | 0.0 | 0.00 | 0.00 | 0.00 | 74 | 1008.3 |
| 20260507130615 | 23 | 24 | 0.0 | 0.0 | 0.00 | 0.00 | 0.00 | 73 | 1008.3 |
| 20260507130016 | 22 | 20 | 0.0 | 0.0 | 0.00 | 0.00 | 0.00 | 72 | 1008.3 |
| 20260507125541 | 23 | 19 | 0.0 | 0.0 | 0.00 | 0.00 | 0.00 | 72 | 1008.2 |
| 20260507125019 | 23 | 18 | 0.0 | 0.0 | 0.00 | 0.00 | 0.00 | 72 | 1008.1 |
| 20260507124540 | 23 | 17 | 0.0 | 0.0 | 0.00 | 0.00 | 0.00 | 72 | 1008.1 |
| 20260507124024 | 23 | 17 | 0.0 | 0.0 | 0.00 | 0.00 | 0.00 | 72 | 1008.0 |
| 20260507123536 | 23 | 17 | 0.0 | 0.0 | 0.00 | 0.00 | 0.00 | 72 | 1007.8 |
| 20260507123106 | 23 | 17 | 0.0 | 0.0 | 0.00 | 0.00 | 0.00 | 72 | 1007.7 |
| 20260507122625 | 23 | 17 | 0.0 | 0.0 | 0.00 | 0.00 | 0.00 | 71 | 1007.6 |
| 20260507122131 | 23 | 18 | 0.0 | 0.0 | 0.00 | 0.00 | 0.00 | 71 | 1007.4 |
| 20260507121515 | 23 | 17 | 0.0 | 0.0 | 0.00 | 0.00 | 0.00 | 71 | 1007.3 |
| 20260507121100 | 23 | 17 | 0.0 | 0.0 | 0.00 | 0.00 | 0.00 | 71 | 1007.4 |
| 20260507120614 | 23 | 17 | 0.0 | 0.0 | 0.00 | 0.00 | 0.00 | 71 | 1007.4 |
| 20260507120010 | 23 | 17 | 0.0 | 0.0 | 0.00 | 0.00 | 0.00 | 72 | 1007.5 |
| 20260507115532 | 23 | 17 | 0.0 | 3.2 | 0.00 | 0.00 | 0.00 | 72 | 1007.3 |
| 20260507115049 | 23 | 17 | 0.0 | 3.2 | 0.00 | 0.00 | 0.00 | 72 | 1007.2 |
| 20260507114612 | 23 | 17 | 0.0 | 3.2 | 0.00 | 0.00 | 0.00 | 72 | 1007.2 |
| 20260507114004 | 23 | 17 | 1.6 | 3.2 | 0.00 | 0.00 | 0.00 | 72 | 1007.1 |
| 20260507113520 | 23 | 17 | 0.0 | 3.2 | 0.00 | 0.00 | 0.00 | 72 | 1007.0 |
| 20260507113129 | 23 | 17 | 0.0 | 3.2 | 0.00 | 0.00 | 0.00 | 72 | 1007.0 |
| 20260507112620 | 23 | 17 | 0.0 | 3.2 | 0.00 | 0.00 | 0.00 | 72 | 1007.0 |
| 20260507112007 | 23 | 17 | 1.6 | 4.8 | 0.00 | 0.00 | 0.00 | 72 | 1007.0 |
| 20260507111532 | 23 | 17 | 1.6 | 4.8 | 0.00 | 0.00 | 0.00 | 72 | 1007.0 |
| 20260507111052 | 23 | 18 | 0.0 | 4.8 | 0.00 | 0.00 | 0.00 | 73 | 1006.8 |
| 20260507110610 | 23 | 18 | 3.2 | 4.8 | 0.00 | 0.00 | 0.00 | 74 | 1006.8 |
| 20260507110010 | 23 | 28 | 1.6 | 4.8 | 0.00 | 0.00 | 0.00 | 76 | 1006.8 |
| 20260507105527 | 23 | 28 | 1.6 | 3.2 | 0.00 | 0.00 | 0.00 | 76 | 1006.7 |
| 20260507105053 | 23 | 28 | 1.6 | 4.8 | 0.00 | 0.00 | 0.00 | 76 | 1006.7 |
| 20260507104610 | 23 | 28 | 0.0 | 4.8 | 0.00 | 0.00 | 0.00 | 77 | 1006.7 |
| 20260507104012 | 23 | 28 | 3.2 | 4.8 | 0.00 | 0.00 | 0.00 | 77 | 1006.7 |
| 20260507103521 | 23 | 32 | 1.6 | 4.8 | 0.00 | 0.00 | 0.00 | 77 | 1006.8 |
| 20260507103103 | 24 | 32 | 1.6 | 4.8 | 0.00 | 0.00 | 0.00 | 78 | 1006.8 |
| 20260507102619 | 24 | 32 | 3.2 | 4.8 | 0.00 | 0.00 | 0.00 | 78 | 1006.8 |
| 20260507102020 | 24 | 100 | 0.0 | 3.2 | 0.00 | 0.00 | 0.00 | 78 | 1006.8 |
| 20260507101542 | 24 | 100 | 0.0 | 3.2 | 0.00 | 0.00 | 0.00 | 78 | 1006.8 |
| 20260507101055 | 24 | 100 | 0.0 | 0.0 | 0.00 | 0.00 | 0.00 | 78 | 1006.8 |
| 20260507100610 | 24 | 101 | 0.0 | 0.0 | 0.00 | 0.00 | 0.00 | 78 | 1006.8 |
| 20260507100011 | 24 | 101 | 0.0 | 0.0 | 0.00 | 0.00 | 0.00 | 78 | 1006.9 |
| 20260507095526 | 24 | 101 | 0.0 | 1.6 | 0.00 | 0.00 | 0.00 | 78 | 1007.0 |
| 20260507095052 | 24 | 101 | 0.0 | 1.6 | 0.00 | 0.00 | 0.00 | 79 | 1007.1 |
| 20260507094617 | 24 | 101 | 0.0 | 4.8 | 0.00 | 0.00 | 0.00 | 79 | 1007.1 |
| 20260507094135 | 24 | 101 | 1.6 | 4.8 | 0.00 | 0.00 | 0.00 | 79 | 1007.1 |
| 20260507093517 | 25 | 93 | 1.6 | 4.8 | 0.00 | 0.00 | 0.00 | 80 | 1007.1 |
| 20260507093104 | 25 | 105 | 0.0 | 0.0 | 0.00 | 0.00 | 0.00 | 81 | 1007.2 |
| 20260507092627 | 25 | 105 | 0.0 | 0.0 | 0.00 | 0.00 | 0.00 | 81 | 1007.3 |
| 20260507092016 | 25 | 105 | 0.0 | 3.2 | 0.00 | 0.00 | 0.00 | 81 | 1007.4 |
| 20260507091537 | 25 | 105 | 0.0 | 4.8 | 0.00 | 0.00 | 0.00 | 81 | 1007.4 |
| 20260507091105 | 25 | 105 | 1.6 | 3.2 | 0.00 | 0.00 | 0.00 | 81 | 1007.4 |
| 20260507090619 | 25 | 105 | 1.6 | 4.8 | 0.00 | 0.00 | 0.00 | 81 | 1007.4 |
| 20260507090038 | 25 | 105 | 1.6 | 4.8 | 0.00 | 0.00 | 0.00 | 81 | 1007.5 |
| 20260507085619 | 25 | 105 | 0.0 | 4.8 | 0.00 | 0.00 | 0.00 | 81 | 1007.5 |
| 20260507085131 | 25 | 105 | 0.0 | 4.8 | 0.00 | 0.00 | 0.00 | 81 | 1007.6 |
| 20260507084514 | 25 | 111 | 1.6 | 4.8 | 0.00 | 0.00 | 0.00 | 81 | 1007.7 |
| 20260507084047 | 25 | 103 | 0.0 | 4.8 | 0.00 | 0.00 | 0.00 | 81 | 1007.9 |
| 20260507083602 | 25 | 103 | 0.0 | 4.8 | 0.00 | 0.00 | 0.00 | 81 | 1007.9 |
| 20260507083014 | 25 | 99 | 1.6 | 3.2 | 0.00 | 0.00 | 0.00 | 81 | 1008.1 |
| 20260507082535 | 25 | 99 | 0.0 | 1.6 | 0.00 | 0.00 | 0.00 | 81 | 1008.2 |
| 20260507082056 | 25 | 99 | 0.0 | 3.2 | 0.00 | 0.00 | 0.00 | 81 | 1008.2 |
| 20260507081612 | 25 | 99 | 0.0 | 4.8 | 0.00 | 0.00 | 0.00 | 81 | 1008.3 |
| 20260507081015 | 25 | 99 | 1.6 | 4.8 | 0.00 | 0.00 | 0.00 | 81 | 1008.4 |
| 20260507080530 | 25 | 99 | 0.0 | 3.2 | 0.00 | 0.00 | 0.00 | 81 | 1008.4 |
| 20260507080054 | 25 | 99 | 0.0 | 1.6 | 0.00 | 0.00 | 0.00 | 81 | 1008.4 |
| 20260507075627 | 25 | 99 | 0.0 | 0.0 | 0.00 | 0.00 | 0.00 | 80 | 1008.5 |
| 20260507075014 | 25 | 99 | 0.0 | 0.0 | 0.00 | 0.00 | 0.00 | 81 | 1008.7 |
| 20260507074538 | 25 | 99 | 0.0 | 0.0 | 0.00 | 0.00 | 0.00 | 81 | 1008.6 |
| 20260507074101 | 25 | 100 | 0.0 | 0.0 | 0.00 | 0.00 | 0.00 | 81 | 1008.7 |
| 20260507073618 | 25 | 100 | 0.0 | 0.0 | 0.00 | 0.00 | 0.00 | 81 | 1008.8 |
| 20260507073007 | 25 | 100 | 0.0 | 0.0 | 0.00 | 0.00 | 0.00 | 80 | 1008.8 |
| 20260507072530 | 25 | 100 | 0.0 | 0.0 | 0.00 | 0.00 | 0.00 | 81 | 1008.8 |
| 20260507072102 | 25 | 100 | 0.0 | 0.0 | 0.00 | 0.00 | 0.00 | 81 | 1008.8 |
| 20260507071617 | 25 | 100 | 0.0 | 0.0 | 0.00 | 0.00 | 0.00 | 80 | 1008.9 |
| 20260507071013 | 25 | 100 | 0.0 | 0.0 | 0.00 | 0.00 | 0.00 | 80 | 1009.0 |
| 20260507070530 | 25 | 100 | 0.0 | 1.6 | 0.00 | 0.00 | 0.00 | 80 | 1008.9 |
| 20260507070053 | 25 | 100 | 0.0 | 1.6 | 0.00 | 0.00 | 0.00 | 80 | 1009.0 |
| 20260507065615 | 25 | 100 | 0.0 | 1.6 | 0.00 | 0.00 | 0.00 | 80 | 1009.0 |
| 20260507065013 | 25 | 100 | 0.0 | 3.2 | 0.00 | 0.00 | 0.00 | 80 | 1009.0 |
| 20260507064538 | 25 | 100 | 0.0 | 1.6 | 0.00 | 0.00 | 0.00 | 80 | 1009.0 |
| 20260507064051 | 25 | 100 | 0.0 | 1.6 | 0.00 | 0.00 | 0.00 | 80 | 1009.2 |
| 20260507063610 | 26 | 100 | 0.0 | 3.2 | 0.00 | 0.00 | 0.00 | 80 | 1009.2 |
| 20260507063007 | 26 | 100 | 0.0 | 3.2 | 0.00 | 0.00 | 0.00 | 80 | 1009.2 |
| 20260507062524 | 26 | 100 | 0.0 | 1.6 | 0.00 | 0.00 | 0.00 | 80 | 1009.2 |
| 20260507062057 | 26 | 100 | 0.0 | 3.2 | 0.00 | 0.00 | 0.00 | 80 | 1009.3 |
| 20260507061614 | 26 | 100 | 0.0 | 3.2 | 0.00 | 0.00 | 0.00 | 80 | 1009.3 |
| 20260507061004 | 26 | 100 | 0.0 | 3.2 | 0.00 | 0.00 | 0.00 | 80 | 1009.3 |
| 20260507060521 | 26 | 100 | 0.0 | 4.8 | 0.00 | 0.00 | 0.00 | 80 | 1009.4 |
| 20260507060050 | 26 | 100 | 0.0 | 4.8 | 0.00 | 0.00 | 0.00 | 80 | 1009.4 |
| 20260507055609 | 26 | 92 | 0.0 | 3.2 | 0.00 | 0.00 | 0.00 | 80 | 1009.5 |
| 20260507055008 | 26 | 92 | 0.0 | 1.6 | 0.00 | 0.00 | 0.00 | 80 | 1009.6 |
| 20260507054522 | 26 | 91 | 0.0 | 1.6 | 0.00 | 0.00 | 0.00 | 80 | 1009.6 |
| 20260507054103 | 26 | 91 | 0.0 | 1.6 | 0.00 | 0.00 | 0.00 | 80 | 1009.7 |
| 20260507053619 | 26 | 91 | 0.0 | 1.6 | 0.00 | 0.00 | 0.00 | 80 | 1009.7 |
| 20260507053008 | 26 | 91 | 0.0 | 3.2 | 0.00 | 0.00 | 0.00 | 80 | 1009.7 |
| 20260507052527 | 26 | 91 | 0.0 | 3.2 | 0.00 | 0.00 | 0.00 | 80 | 1009.7 |
| 20260507052049 | 26 | 91 | 0.0 | 3.2 | 0.00 | 0.00 | 0.00 | 80 | 1009.7 |
| 20260507051612 | 26 | 91 | 0.0 | 4.8 | 0.00 | 0.00 | 0.00 | 80 | 1009.6 |
| 20260507051022 | 26 | 90 | 1.6 | 4.8 | 0.00 | 0.00 | 0.00 | 80 | 1009.6 |
| 20260507050535 | 26 | 90 | 1.6 | 4.8 | 0.00 | 0.00 | 0.00 | 80 | 1009.6 |
| 20260507050057 | 26 | 91 | 0.0 | 1.6 | 0.00 | 0.00 | 0.00 | 80 | 1009.6 |
| 20260507045614 | 26 | 91 | 0.0 | 3.2 | 0.00 | 0.00 | 0.00 | 80 | 1009.6 |
| 20260507045025 | 26 | 91 | 0.0 | 3.2 | 0.00 | 0.00 | 0.00 | 80 | 1009.6 |
| 20260507044555 | 26 | 91 | 0.0 | 3.2 | 0.00 | 0.00 | 0.00 | 79 | 1009.6 |
| 20260507044016 | 26 | 91 | 0.0 | 4.8 | 0.00 | 0.00 | 0.00 | 79 | 1009.6 |
| 20260507043529 | 26 | 91 | 0.0 | 4.8 | 0.00 | 0.00 | 0.00 | 79 | 1009.6 |
| 20260507043100 | 26 | 150 | 0.0 | 4.8 | 0.00 | 0.00 | 0.00 | 79 | 1009.6 |
| 20260507042604 | 26 | 157 | 0.0 | 4.8 | 0.00 | 0.00 | 0.00 | 79 | 1009.5 |
| 20260507042009 | 26 | 161 | 0.0 | 8.0 | 0.00 | 0.00 | 0.00 | 80 | 1009.5 |
| 20260507041525 | 26 | 145 | 3.2 | 8.0 | 0.00 | 0.00 | 0.00 | 80 | 1009.4 |
| 20260507041045 | 26 | 157 | 4.8 | 8.0 | 0.00 | 0.00 | 0.00 | 80 | 1009.4 |
| 20260507040611 | 26 | 189 | 3.2 | 12.9 | 0.00 | 0.00 | 0.00 | 80 | 1009.4 |
| 20260507040005 | 26 | 196 | 6.4 | 11.3 | 0.00 | 0.00 | 0.00 | 80 | 1009.4 |
| 20260507035524 | 26 | 183 | 6.4 | 11.3 | 0.00 | 0.00 | 0.00 | 80 | 1009.3 |
| 20260507035103 | 26 | 199 | 3.2 | 9.7 | 0.00 | 0.00 | 0.00 | 80 | 1009.3 |
| 20260507034620 | 26 | 197 | 6.4 | 11.3 | 0.00 | 0.00 | 0.00 | 80 | 1009.3 |
| 20260507034012 | 26 | 178 | 6.4 | 11.3 | 0.00 | 0.00 | 0.00 | 80 | 1009.3 |
| 20260507033531 | 26 | 178 | 4.8 | 11.3 | 0.00 | 0.00 | 0.00 | 80 | 1009.3 |
| 20260507033101 | 26 | 254 | 6.4 | 11.3 | 0.00 | 0.00 | 0.00 | 80 | 1009.3 |
| 20260507032618 | 26 | 187 | 4.8 | 12.9 | 0.00 | 0.00 | 0.00 | 81 | 1009.3 |
| 20260507032021 | 26 | 183 | 6.4 | 12.9 | 0.00 | 0.00 | 0.00 | 81 | 1009.2 |
| 20260507031537 | 26 | 203 | 6.4 | 16.1 | 0.00 | 0.00 | 0.00 | 80 | 1009.2 |
| 20260507031125 | 26 | 201 | 4.8 | 16.1 | 0.00 | 0.00 | 0.00 | 80 | 1009.2 |
| 20260507030503 | 26 | 239 | 6.4 | 12.9 | 0.00 | 0.00 | 0.00 | 80 | 1009.1 |
| 20260507030008 | 26 | 179 | 6.4 | 16.1 | 0.00 | 0.00 | 0.00 | 80 | 1009.1 |
| 20260507025508 | 26 | 245 | 6.4 | 16.1 | 0.00 | 0.00 | 0.00 | 80 | 1009.1 |
| 20260507025009 | 27 | 182 | 8.0 | 17.7 | 0.00 | 0.00 | 0.00 | 80 | 1009.1 |
| 20260507024514 | 27 | 208 | 8.0 | 17.7 | 0.00 | 0.00 | 0.00 | 80 | 1009.0 |
| 20260507024016 | 27 | 257 | 6.4 | 12.9 | 0.00 | 0.00 | 0.00 | 80 | 1008.9 |
| 20260507023516 | 27 | 222 | 6.4 | 14.5 | 0.00 | 0.00 | 0.00 | 80 | 1008.8 |
| 20260507023016 | 27 | 272 | 6.4 | 14.5 | 0.00 | 0.00 | 0.00 | 80 | 1008.9 |
| 20260507022518 | 27 | 221 | 6.4 | 12.9 | 0.00 | 0.00 | 0.00 | 79 | 1008.8 |
| 20260507022016 | 27 | 212 | 6.4 | 17.7 | 0.00 | 0.00 | 0.00 | 79 | 1008.8 |
| 20260507021516 | 27 | 184 | 6.4 | 17.7 | 0.00 | 0.00 | 0.00 | 79 | 1008.8 |
| 20260507021020 | 27 | 217 | 9.7 | 16.1 | 0.00 | 0.00 | 0.00 | 79 | 1008.8 |
| 20260507020520 | 27 | 183 | 6.4 | 12.9 | 0.00 | 0.00 | 0.00 | 79 | 1008.9 |
| 20260507020041 | 27 | 202 | 8.0 | 14.5 | 0.00 | 0.00 | 0.00 | 79 | 1008.8 |
| 20260507015522 | 27 | 250 | 8.0 | 14.5 | 0.00 | 0.00 | 0.00 | 79 | 1008.8 |
| 20260507015020 | 27 | 196 | 6.4 | 14.5 | 0.00 | 0.00 | 0.00 | 79 | 1008.8 |
| 20260507014520 | 27 | 192 | 6.4 | 12.9 | 0.00 | 0.00 | 0.00 | 79 | 1008.8 |
| 20260507014020 | 27 | 179 | 6.4 | 12.9 | 0.00 | 0.00 | 0.00 | 79 | 1008.7 |
| 20260507013521 | 27 | 184 | 6.4 | 11.3 | 0.00 | 0.00 | 0.00 | 79 | 1008.7 |
| 20260507013026 | 27 | 207 | 6.4 | 11.3 | 0.00 | 0.00 | 0.00 | 79 | 1008.6 |
| 20260507012527 | 27 | 182 | 4.8 | 20.9 | 0.00 | 0.00 | 0.00 | 79 | 1008.6 |
| 20260507012006 | 27 | 250 | 11.3 | 20.9 | 0.00 | 0.00 | 0.00 | 79 | 1008.6 |
| 20260507011511 | 27 | 251 | 11.3 | 17.7 | 0.00 | 0.00 | 0.00 | 79 | 1008.4 |
| 20260507011008 | 27 | 191 | 8.0 | 17.7 | 0.00 | 0.00 | 0.00 | 79 | 1008.3 |
| 20260507010509 | 27 | 175 | 9.7 | 17.7 | 0.00 | 0.00 | 0.00 | 79 | 1008.3 |
| 20260507010016 | 27 | 253 | 8.0 | 16.1 | 0.00 | 0.00 | 0.00 | 79 | 1008.3 |
| 20260507005516 | 27 | 240 | 6.4 | 14.5 | 0.00 | 0.00 | 0.00 | 79 | 1008.3 |
| 20260507005018 | 27 | 232 | 8.0 | 16.1 | 0.00 | 0.00 | 0.00 | 78 | 1008.3 |
| 20260507004517 | 27 | 232 | 9.7 | 16.1 | 0.00 | 0.00 | 0.00 | 78 | 1008.2 |
| 20260507004017 | 27 | 207 | 6.4 | 14.5 | 0.00 | 0.00 | 0.00 | 78 | 1008.2 |
| 20260507003517 | 27 | 195 | 6.4 | 20.9 | 0.00 | 0.00 | 0.00 | 77 | 1008.2 |
| 20260507003023 | 27 | 223 | 6.4 | 14.5 | 0.00 | 0.00 | 0.00 | 77 | 1008.2 |
| 20260507002522 | 27 | 201 | 8.0 | 14.5 | 0.00 | 0.00 | 0.00 | 78 | 1008.1 |
| 20260507002006 | 27 | 201 | 8.0 | 16.1 | 0.00 | 0.00 | 0.00 | 77 | 1008.0 |
| 20260507001519 | 27 | 184 | 9.7 | 14.5 | 0.00 | 0.00 | 0.00 | 77 | 1008.0 |
| 20260507001009 | 27 | 176 | 6.4 | 17.7 | 0.00 | 0.00 | 0.00 | 77 | 1008.0 |
| 20260507000509 | 27 | 251 | 8.0 | 17.7 | 0.00 | 0.00 | 0.00 | 77 | 1007.9 |
| 20260507000017 | 28 | 211 | 9.7 | 16.1 | 0.00 | 0.00 | 0.00 | 76 | 1007.8 |
| 20260506235519 | 28 | 181 | 6.4 | 17.7 | 0.00 | 0.00 | 0.00 | 76 | 1007.8 |
| 20260506235016 | 28 | 214 | 8.0 | 17.7 | 0.00 | 0.00 | 0.00 | 76 | 1007.8 |
| 20260506234517 | 28 | 192 | 6.4 | 22.5 | 0.00 | 0.00 | 0.00 | 76 | 1007.8 |
| 20260506234017 | 28 | 198 | 8.0 | 22.5 | 0.00 | 0.00 | 0.00 | 75 | 1007.8 |
| 20260506233518 | 28 | 261 | 9.7 | 22.5 | 0.00 | 0.00 | 0.00 | 75 | 1007.8 |
| 20260506233019 | 28 | 223 | 6.4 | 17.7 | 0.00 | 0.00 | 0.00 | 75 | 1007.7 |
| 20260506232517 | 28 | 252 | 9.7 | 22.5 | 0.00 | 0.00 | 0.00 | 76 | 1007.7 |
| 20260506232004 | 28 | 213 | 9.7 | 24.1 | 0.00 | 0.00 | 0.00 | 75 | 1007.6 |
| 20260506231504 | 28 | 265 | 11.3 | 24.1 | 0.00 | 0.00 | 0.00 | 75 | 1007.7 |
| 20260506231008 | 28 | 184 | 9.7 | 22.5 | 0.00 | 0.00 | 0.00 | 74 | 1007.7 |
| 20260506230511 | 28 | 221 | 11.3 | 19.3 | 0.00 | 0.00 | 0.00 | 74 | 1007.7 |
| 20260506230010 | 28 | 199 | 6.4 | 20.9 | 0.00 | 0.00 | 0.00 | 74 | 1007.7 |